Date String (YYYY-MM-DD hh:mm:ss) UTC,Instrument flags,Ambient pressure (hPa),Sample flow (lpm),Bypass flow (lpm),Sample temperature (°C),Ambient temperature (°C),ASC tube jacket temperature (°C),LED temperature (°C),Box temperature (°C),Sample RH (%),Span deviation,Mass concentration (μg/m³),Mass concentration (μg/m³),Mass concentration (μg/m³)
DateTimeUTC,F1_M11,P_M11,Q1_M11,Q2_M11,T1_M11,T2_M11,T3_M11,T4_M11,T5_M11,U1_M11,ZSPAN_M11,X0_M11,X2_M11,X1_M11
2022-12-27 11:00:00,,0820.2,4.98,0.00,21.3,20.0,00.0,30.2,23.0,14.5,0000.0,0000.67,0000.54,0000.50
2022-12-27 11:01:00,,0820.2,5.01,0.00,21.3,19.9,00.0,30.2,23.1,14.1,0000.0,0000.63,0000.50,0000.47
2022-12-27 11:02:00,,0820.1,5.02,0.00,21.3,20.0,00.0,30.2,23.1,14.2,0000.0,0000.61,0000.49,0000.46
2022-12-27 11:03:00,,0820.0,5.01,0.00,21.3,20.1,00.0,30.2,23.1,14.2,0000.0,0000.65,0000.52,0000.48
2022-12-27 11:04:00,,0820.1,4.98,0.00,21.3,20.2,00.0,30.2,23.2,14.1,0000.0,0000.69,0000.53,0000.47
2022-12-27 11:05:00,,0820.2,4.98,0.00,21.4,20.3,00.0,30.2,23.2,14.3,0000.0,0000.65,0000.50,0000.45
2022-12-27 11:06:00,,0820.2,5.02,0.00,21.4,20.3,00.0,30.3,23.2,14.2,0000.0,0000.65,0000.49,0000.42
2022-12-27 11:07:00,,0820.2,5.01,0.00,21.4,20.4,00.0,30.3,23.2,13.8,0000.0,0000.64,0000.48,0000.41
2022-12-27 11:08:00,,0820.2,5.02,0.00,21.5,20.4,00.0,30.3,23.2,13.7,0000.0,0000.64,0000.48,0000.40
2022-12-27 11:09:00,,0820.0,4.97,0.00,21.5,20.4,00.0,30.3,23.3,13.7,0000.0,0000.58,0000.45,0000.39
2022-12-27 11:10:00,,0820.0,4.98,0.00,21.5,20.5,00.0,30.3,23.4,13.7,0000.0,0000.58,0000.44,0000.38
2022-12-27 11:11:00,,0820.0,5.00,0.00,21.5,20.5,00.0,30.3,23.4,13.8,0000.0,0000.60,0000.45,0000.37
2022-12-27 11:12:00,,0819.9,5.02,0.00,21.6,20.5,00.0,30.3,23.4,13.8,0000.0,0000.62,0000.45,0000.36
2022-12-27 11:13:00,,0820.0,5.01,0.00,21.6,20.6,00.0,30.4,23.4,14.0,0000.0,0000.61,0000.44,0000.36
2022-12-27 11:14:00,,0819.9,4.99,0.00,21.6,20.6,00.0,30.4,23.5,14.1,0000.0,0000.58,0000.43,0000.36
2022-12-27 11:15:00,,0819.9,4.98,0.00,21.6,20.6,00.0,30.4,23.5,14.2,0000.0,0000.60,0000.46,0000.38
2022-12-27 11:16:00,,0819.9,4.99,0.00,21.6,20.6,00.0,30.4,23.5,14.4,0000.0,0000.67,0000.50,0000.41
2022-12-27 11:17:00,,0819.9,5.02,0.00,21.6,20.6,00.0,30.4,23.5,14.6,0000.0,0000.74,0000.54,0000.44
2022-12-27 11:18:00,,0819.9,5.03,0.00,21.6,20.6,00.0,30.4,23.5,14.3,0000.0,0000.78,0000.57,0000.47
2022-12-27 11:19:00,,0819.9,5.00,0.00,21.7,20.6,00.0,30.5,23.5,14.3,0000.0,0000.81,0000.60,0000.50
2022-12-27 11:20:00,,0819.9,4.98,0.00,21.7,20.6,00.0,30.5,23.6,14.4,0000.0,0000.99,0000.64,0000.53
2022-12-27 11:21:00,,0820.0,4.98,0.00,21.7,20.6,00.0,30.5,23.6,14.8,0000.0,0001.75,0000.68,0000.58
2022-12-27 11:22:00,,0819.9,5.01,0.00,21.7,20.6,00.0,30.5,23.6,14.8,0000.0,0002.02,0000.73,0000.63
2022-12-27 11:23:00,,0819.9,5.03,0.00,21.7,20.7,00.0,30.5,23.6,14.6,0000.0,0002.08,0000.79,0000.68
2022-12-27 11:24:00,,0819.8,5.01,0.00,21.7,20.7,00.0,30.5,23.6,14.4,0000.0,0002.16,0000.85,0000.73
2022-12-27 11:25:00,,0819.8,4.98,0.00,21.7,20.6,00.0,30.5,23.6,14.4,0000.0,0002.21,0000.88,0000.76
2022-12-27 11:26:00,,0819.7,4.97,0.00,21.7,20.6,00.0,30.5,23.6,14.0,0000.0,0002.20,0000.88,0000.77
2022-12-27 11:27:00,,0819.7,4.99,0.00,21.7,20.6,00.0,30.5,23.6,13.9,0000.0,0002.13,0000.83,0000.74
2022-12-27 11:28:00,,0819.7,5.03,0.00,21.7,20.6,00.0,30.5,23.5,14.4,0000.0,0002.10,0000.83,0000.74
2022-12-27 11:29:00,,0819.8,4.98,0.00,21.7,20.5,00.0,30.6,23.5,14.9,0000.0,0002.14,0000.86,0000.78
2022-12-27 11:30:00,,0819.9,4.99,0.00,21.7,20.3,00.0,30.6,23.4,15.2,0000.0,0002.21,0000.92,0000.82
2022-12-27 11:31:00,,0819.8,4.98,0.00,21.6,20.1,00.0,30.5,23.3,15.4,0000.0,0002.33,0001.03,0000.92
2022-12-27 11:32:00,,0819.8,4.98,0.00,21.6,20.0,00.0,30.5,23.2,15.5,0000.0,0001.88,0001.13,0001.03
2022-12-27 11:33:00,,0819.7,4.98,0.00,21.5,19.8,00.0,30.5,23.1,15.6,0000.0,0001.53,0001.27,0001.17
2022-12-27 11:34:00,,0819.7,5.02,0.00,21.5,19.6,00.0,30.5,23.0,15.5,0000.0,0001.61,0001.36,0001.27
2022-12-27 11:35:00,,0819.6,5.02,0.00,21.4,19.6,00.0,30.5,23.0,15.4,0000.0,0001.71,0001.44,0001.35
2022-12-27 11:36:00,,0819.5,5.01,0.00,21.4,19.7,00.0,30.5,23.0,15.1,0000.0,0001.74,0001.47,0001.39
2022-12-27 11:37:00,,0819.5,4.99,0.00,21.4,19.7,00.0,30.4,23.0,15.0,0000.0,0001.77,0001.51,0001.42
2022-12-27 11:38:00,,0819.5,4.99,0.00,21.4,19.8,00.0,30.4,23.0,14.8,0000.0,0001.87,0001.58,0001.48
2022-12-27 11:39:00,,0819.4,5.02,0.00,21.4,19.9,00.0,30.4,23.1,14.8,0000.0,0001.89,0001.60,0001.51
2022-12-27 11:40:00,,0819.4,5.02,0.00,21.4,20.0,00.0,30.4,23.1,15.3,0000.0,0001.93,0001.62,0001.51
2022-12-27 11:41:00,,0819.4,5.01,0.00,21.4,20.1,00.0,30.4,23.0,14.9,0000.0,0001.91,0001.60,0001.49
2022-12-27 11:42:00,,0819.4,4.98,0.00,21.4,20.1,00.0,30.4,23.1,14.9,0000.0,0001.83,0001.51,0001.41
2022-12-27 11:43:00,,0819.4,4.97,0.00,21.4,20.2,00.0,30.4,23.1,14.6,0000.0,0001.71,0001.40,0001.30
2022-12-27 11:44:00,,0819.4,4.99,0.00,21.4,20.2,00.0,30.4,23.1,14.2,0000.0,0001.55,0001.24,0001.13
2022-12-27 11:45:00,,0819.4,5.02,0.00,21.4,20.5,00.0,30.3,23.2,14.0,0000.0,0001.39,0001.10,0000.98
2022-12-27 11:46:00,,0819.3,5.02,0.00,21.5,21.3,00.0,30.3,23.5,13.9,0000.0,0001.23,0000.96,0000.85
2022-12-27 11:47:00,,0819.3,4.99,0.00,21.6,21.6,00.0,30.3,23.6,13.9,0000.0,0001.12,0000.87,0000.77
2022-12-27 11:48:00,,0819.3,4.98,0.00,21.6,21.3,00.0,30.4,23.6,14.0,0000.0,0001.06,0000.80,0000.70
2022-12-27 11:49:00,,0819.3,4.98,0.00,21.7,21.1,00.0,30.4,23.6,13.8,0000.0,0000.99,0000.75,0000.64
2022-12-27 11:50:00,,0819.3,5.01,0.00,21.7,20.9,00.0,30.4,23.6,13.7,0000.0,0000.90,0000.68,0000.58
2022-12-27 11:51:00,,0819.3,5.03,0.00,21.7,20.8,00.0,30.5,23.5,13.5,0000.0,0000.79,0000.60,0000.51
2022-12-27 11:52:00,,0819.3,5.01,0.00,21.7,20.6,00.0,30.5,23.4,13.6,0000.0,0000.69,0000.52,0000.44
2022-12-27 11:53:00,,0819.4,4.99,0.00,21.6,20.5,00.0,30.5,23.4,13.6,0000.0,0000.58,0000.45,0000.39
2022-12-27 11:54:00,,0819.4,4.98,0.00,21.6,20.5,00.0,30.5,23.4,13.5,0000.0,0000.54,0000.41,0000.33
2022-12-27 11:55:00,,0819.3,5.01,0.00,21.6,20.4,00.0,30.5,23.4,13.5,0000.0,0000.51,0000.37,0000.31
2022-12-27 11:56:00,,0819.3,5.02,0.00,21.6,20.3,00.0,30.5,23.3,13.5,0000.0,0000.51,0000.36,0000.30
2022-12-27 11:57:00,,0819.3,5.02,0.00,21.6,20.2,00.0,30.5,23.3,13.5,0000.0,0000.54,0000.36,0000.29
2022-12-27 11:58:00,,0819.3,4.99,0.00,21.6,20.1,00.0,30.5,23.3,13.5,0000.0,0000.53,0000.35,0000.28
2022-12-27 11:59:00,,0819.2,5.00,0.00,21.6,20.1,00.0,30.5,23.3,13.5,0000.0,0000.51,0000.34,0000.26
